Tracking 31027 objects as of 19-Jul-2025
HD Live streaming from Space Station
objects crossing your sky now

DRUMS

Track DRUMS now!
10-day predictions


NORAD ID: 49401
Int'l Code: 2021-102G
Perigee: 514.0 km
Apogee: 535.2 km
Inclination: 97.4 °
Period: 95.0 minutes
Semi major axis: 6895 km
RCS: Unknown
Launch date: November 9, 2021
Source: Japan (JPN)
Launch site: KAGOSHIMA SPACE CENTER UNIVERSITY OF TOKYO (KSCUT)
Your satellite tracking list
CREW DRAGON DEMO-2 DEB
Track 1 satellite(s)




NASA's NSSDC Master Catalog

Two Line Element Set (TLE):
1 49401U 21102G   25199.55187714  .00003325  00000-0  17534-3 0  9994
2 49401  97.3759 240.8728 0015403 322.2531  37.7621 15.16152854202954
Source of the keplerian elements: AFSPC